Year,Month,Day,Hour,Minute,Value (Times are PST for temperature in C)
2011,07,23,00,00,13.80
2011,07,23,00,01,13.80
2011,07,23,00,02,13.80
2011,07,23,00,03,13.80
2011,07,23,00,04,13.80
2011,07,23,00,05,13.80
2011,07,23,00,06,13.80
2011,07,23,00,07,13.90
2011,07,23,00,08,13.90
2011,07,23,00,09,13.90
2011,07,23,00,10,13.90
2011,07,23,00,11,13.90
2011,07,23,00,12,14.00
2011,07,23,00,13,14.00
2011,07,23,00,14,14.00
2011,07,23,00,15,14.00
2011,07,23,00,16,14.00
2011,07,23,00,17,14.00
2011,07,23,00,18,14.00
2011,07,23,00,19,14.00
2011,07,23,00,20,14.00
2011,07,23,00,21,14.00
2011,07,23,00,22,14.00
2011,07,23,00,23,14.00
2011,07,23,00,24,13.90
2011,07,23,00,25,13.90
2011,07,23,00,26,13.90
2011,07,23,00,27,13.90
2011,07,23,00,28,13.80
2011,07,23,00,29,13.80
2011,07,23,00,30,13.80
2011,07,23,00,31,13.70
2011,07,23,00,32,13.70
2011,07,23,00,33,13.60
2011,07,23,00,34,13.60
2011,07,23,00,35,13.50
2011,07,23,00,36,13.50
2011,07,23,00,37,13.40
2011,07,23,00,38,13.40
2011,07,23,00,39,13.30
2011,07,23,00,40,13.30
2011,07,23,00,41,13.20
2011,07,23,00,42,13.20
2011,07,23,00,43,13.10
2011,07,23,00,44,13.10
2011,07,23,00,45,13.00
2011,07,23,00,46,12.90
2011,07,23,00,47,12.90
2011,07,23,00,48,12.90
2011,07,23,00,49,12.80
2011,07,23,00,50,12.80
2011,07,23,00,51,12.70
2011,07,23,00,52,12.70
2011,07,23,00,53,12.70
2011,07,23,00,54,12.60
2011,07,23,00,55,12.60
2011,07,23,00,56,12.60
2011,07,23,00,57,12.50
2011,07,23,00,58,12.50
2011,07,23,00,59,12.40
2011,07,23,01,00,12.40
2011,07,23,01,01,12.40
2011,07,23,01,02,12.30
2011,07,23,01,03,12.30
2011,07,23,01,04,12.30
2011,07,23,01,05,12.20
2011,07,23,01,06,12.20
2011,07,23,01,07,12.20
2011,07,23,01,08,12.20
2011,07,23,01,09,12.20
2011,07,23,01,10,12.10
2011,07,23,01,11,12.10
2011,07,23,01,12,12.10
2011,07,23,01,13,12.10
2011,07,23,01,14,12.10
2011,07,23,01,15,12.10
2011,07,23,01,16,12.10
2011,07,23,01,17,12.10
2011,07,23,01,18,12.10
2011,07,23,01,19,12.10
2011,07,23,01,20,12.00
2011,07,23,01,21,12.00
2011,07,23,01,22,12.00
2011,07,23,01,23,12.00
2011,07,23,01,24,11.90
2011,07,23,01,25,11.90
2011,07,23,01,26,11.90
2011,07,23,01,27,11.90
2011,07,23,01,28,11.90
2011,07,23,01,29,11.90
2011,07,23,01,30,11.90
2011,07,23,01,31,11.90
2011,07,23,01,32,11.90
2011,07,23,01,33,11.90
2011,07,23,01,34,11.90
2011,07,23,01,35,11.80
2011,07,23,01,36,11.80
2011,07,23,01,37,11.80
2011,07,23,01,38,11.80
2011,07,23,01,39,11.80
2011,07,23,01,40,11.80
2011,07,23,01,41,11.70
2011,07,23,01,42,11.70
2011,07,23,01,43,11.70
2011,07,23,01,44,11.70
2011,07,23,01,45,11.60
2011,07,23,01,46,11.60
2011,07,23,01,47,11.60
2011,07,23,01,48,11.60
2011,07,23,01,49,11.60
2011,07,23,01,50,11.50
2011,07,23,01,51,11.50
2011,07,23,01,52,11.50
2011,07,23,01,53,11.50
2011,07,23,01,54,11.50
2011,07,23,01,55,11.40
2011,07,23,01,56,11.40
2011,07,23,01,57,11.40
2011,07,23,01,58,11.40
2011,07,23,01,59,11.40
2011,07,23,02,00,11.40
2011,07,23,02,01,11.40
2011,07,23,02,02,11.40
2011,07,23,02,03,11.40
2011,07,23,02,04,11.40
2011,07,23,02,05,11.40
2011,07,23,02,06,11.40
2011,07,23,02,07,11.30
2011,07,23,02,08,11.30
2011,07,23,02,09,11.30
2011,07,23,02,10,11.30
2011,07,23,02,11,11.30
2011,07,23,02,12,11.30
2011,07,23,02,13,11.30
2011,07,23,02,14,11.30
2011,07,23,02,15,11.30
2011,07,23,02,16,11.30
2011,07,23,02,17,11.30
2011,07,23,02,18,11.20
2011,07,23,02,19,11.20
2011,07,23,02,20,11.20
2011,07,23,02,21,11.20
2011,07,23,02,22,11.20
2011,07,23,02,23,11.20
2011,07,23,02,24,11.20
2011,07,23,02,25,11.20
2011,07,23,02,26,11.20
2011,07,23,02,27,11.20
2011,07,23,02,28,11.20
2011,07,23,02,29,11.20
2011,07,23,02,30,11.20
2011,07,23,02,31,11.20
2011,07,23,02,32,11.20
2011,07,23,02,33,11.10
2011,07,23,02,34,11.10
2011,07,23,02,35,11.10
2011,07,23,02,36,11.10
2011,07,23,02,37,11.10
2011,07,23,02,38,11.10
2011,07,23,02,39,11.10
2011,07,23,02,40,11.10
2011,07,23,02,41,11.10
2011,07,23,02,42,11.10
2011,07,23,02,43,11.10
2011,07,23,02,44,11.10
2011,07,23,02,45,11.10
2011,07,23,02,46,11.00
2011,07,23,02,47,11.00
2011,07,23,02,48,11.00
2011,07,23,02,49,11.00
2011,07,23,02,50,10.90
2011,07,23,02,51,10.90
2011,07,23,02,52,10.90
2011,07,23,02,53,10.90
2011,07,23,02,54,10.90
2011,07,23,02,55,10.90
2011,07,23,02,56,10.80
2011,07,23,02,57,10.80
2011,07,23,02,58,10.80
2011,07,23,02,59,10.80
2011,07,23,03,00,10.80
2011,07,23,03,01,10.80
2011,07,23,03,02,10.80
2011,07,23,03,03,10.80
2011,07,23,03,04,10.80
2011,07,23,03,05,10.80
2011,07,23,03,06,10.70
2011,07,23,03,07,10.70
2011,07,23,03,08,10.70
2011,07,23,03,09,10.70
2011,07,23,03,10,10.70
2011,07,23,03,11,10.70
2011,07,23,03,12,10.70
2011,07,23,03,13,10.70
2011,07,23,03,14,10.70
2011,07,23,03,15,10.60
2011,07,23,03,16,10.60
2011,07,23,03,17,10.60
2011,07,23,03,18,10.60
2011,07,23,03,19,10.60
2011,07,23,03,20,10.60
2011,07,23,03,21,10.50
2011,07,23,03,22,10.50
2011,07,23,03,23,10.50
2011,07,23,03,24,10.50
2011,07,23,03,25,10.50
2011,07,23,03,26,10.50
2011,07,23,03,27,10.50
2011,07,23,03,28,10.60
2011,07,23,03,29,10.60
2011,07,23,03,30,10.60
2011,07,23,03,31,10.60
2011,07,23,03,32,10.60
2011,07,23,03,33,10.60
2011,07,23,03,34,10.60
2011,07,23,03,35,10.60
2011,07,23,03,36,10.60
2011,07,23,03,37,10.60
2011,07,23,03,38,10.60
2011,07,23,03,39,10.60
2011,07,23,03,40,10.60
2011,07,23,03,41,10.50
2011,07,23,03,42,10.50
2011,07,23,03,43,10.50
2011,07,23,03,44,10.50
2011,07,23,03,45,10.50
2011,07,23,03,46,10.50
2011,07,23,03,47,10.50
2011,07,23,03,48,10.40
2011,07,23,03,49,10.40
2011,07,23,03,50,10.40
2011,07,23,03,51,10.40
2011,07,23,03,52,10.40
2011,07,23,03,53,10.40
2011,07,23,03,54,10.40
2011,07,23,03,55,10.40
2011,07,23,03,56,10.40
2011,07,23,03,57,10.40
2011,07,23,03,58,10.40
2011,07,23,03,59,10.40
2011,07,23,04,00,10.30
2011,07,23,04,01,10.30
2011,07,23,04,02,10.30
2011,07,23,04,03,10.30
2011,07,23,04,04,10.30
2011,07,23,04,05,10.30
2011,07,23,04,06,10.30
2011,07,23,04,07,10.30
2011,07,23,04,08,10.30
2011,07,23,04,09,10.20
2011,07,23,04,10,10.20
2011,07,23,04,11,10.20
2011,07,23,04,12,10.20
2011,07,23,04,13,10.20
2011,07,23,04,14,10.20
2011,07,23,04,15,10.20
2011,07,23,04,16,10.20
2011,07,23,04,17,10.20
2011,07,23,04,18,10.20
2011,07,23,04,19,10.20
2011,07,23,04,20,10.20
2011,07,23,04,21,10.20
2011,07,23,04,22,10.20
2011,07,23,04,23,10.20
2011,07,23,04,24,10.20
2011,07,23,04,25,10.20
2011,07,23,04,26,10.20
2011,07,23,04,27,10.20
2011,07,23,04,28,10.10
2011,07,23,04,29,10.10
2011,07,23,04,30,10.10
2011,07,23,04,31,10.10
2011,07,23,04,32,10.10
2011,07,23,04,33,10.10
2011,07,23,04,34,10.10
2011,07,23,04,35,10.10
2011,07,23,04,36,10.10
2011,07,23,04,37,10.10
2011,07,23,04,38,10.10
2011,07,23,04,39,10.10
2011,07,23,04,40,10.00
2011,07,23,04,41,10.10
2011,07,23,04,42,10.10
2011,07,23,04,43,10.00
2011,07,23,04,44,10.00
2011,07,23,04,45,10.00
2011,07,23,04,46,10.00
2011,07,23,04,47,10.00
2011,07,23,04,48,10.00
2011,07,23,04,49,10.00
2011,07,23,04,50,10.00
2011,07,23,04,51,9.90
2011,07,23,04,52,9.90
2011,07,23,04,53,9.90
2011,07,23,04,54,9.90
2011,07,23,04,55,9.90
2011,07,23,04,56,9.90
2011,07,23,04,57,9.90
2011,07,23,04,58,9.80
2011,07,23,04,59,9.80
2011,07,23,05,00,9.80
2011,07,23,05,01,9.80
2011,07,23,05,02,9.80
2011,07,23,05,03,9.80
2011,07,23,05,04,9.70
2011,07,23,05,05,9.70
2011,07,23,05,06,9.70
2011,07,23,05,07,9.80
2011,07,23,05,08,9.80
2011,07,23,05,09,9.80
2011,07,23,05,10,9.70
2011,07,23,05,11,9.70
2011,07,23,05,12,9.70
2011,07,23,05,13,9.70
2011,07,23,05,14,9.70
2011,07,23,05,15,9.70
2011,07,23,05,16,9.70
2011,07,23,05,17,9.70
2011,07,23,05,18,9.70
2011,07,23,05,19,9.70
2011,07,23,05,20,9.70
2011,07,23,05,21,9.70
2011,07,23,05,22,9.70
2011,07,23,05,23,9.70
2011,07,23,05,24,9.70
2011,07,23,05,25,9.70
2011,07,23,05,26,9.70
2011,07,23,05,27,9.70
2011,07,23,05,28,9.70
2011,07,23,05,29,9.70
2011,07,23,05,30,9.70
2011,07,23,05,31,9.60
2011,07,23,05,32,9.60
2011,07,23,05,33,9.60
2011,07,23,05,34,9.60
2011,07,23,05,35,9.60
2011,07,23,05,36,9.60
2011,07,23,05,37,9.60
2011,07,23,05,38,9.60
2011,07,23,05,39,9.60
2011,07,23,05,40,9.60
2011,07,23,05,41,9.60
2011,07,23,05,42,9.60
2011,07,23,05,43,9.60
2011,07,23,05,44,9.60
2011,07,23,05,45,9.60
2011,07,23,05,46,9.60
2011,07,23,05,47,9.60
2011,07,23,05,48,9.50
2011,07,23,05,49,9.50
2011,07,23,05,50,9.50
2011,07,23,05,51,9.40
2011,07,23,05,52,9.40
2011,07,23,05,53,9.40
2011,07,23,05,54,9.40
2011,07,23,05,55,9.40
2011,07,23,05,56,9.40
2011,07,23,05,57,9.50
2011,07,23,05,58,9.40
2011,07,23,05,59,9.50
2011,07,23,06,00,9.50
2011,07,23,06,01,9.50
2011,07,23,06,02,9.50
2011,07,23,06,03,9.50
2011,07,23,06,04,9.50
2011,07,23,06,05,9.50
2011,07,23,06,06,9.60
2011,07,23,06,07,9.60
2011,07,23,06,08,9.60
2011,07,23,06,09,9.60
2011,07,23,06,10,9.60
2011,07,23,06,11,9.60
2011,07,23,06,12,9.60
2011,07,23,06,13,9.50
2011,07,23,06,14,9.50
2011,07,23,06,15,9.50
2011,07,23,06,16,9.50
2011,07,23,06,17,9.50
2011,07,23,06,18,9.50
2011,07,23,06,19,9.50
2011,07,23,06,20,9.50
2011,07,23,06,21,9.50
2011,07,23,06,22,9.60
2011,07,23,06,23,9.60
2011,07,23,06,24,9.60
2011,07,23,06,25,9.60
2011,07,23,06,26,9.60
2011,07,23,06,27,9.60
2011,07,23,06,28,9.60
2011,07,23,06,29,9.60
2011,07,23,06,30,9.60
2011,07,23,06,31,9.60
2011,07,23,06,32,9.60
2011,07,23,06,33,9.60
2011,07,23,06,34,9.60
2011,07,23,06,35,9.60
2011,07,23,06,36,9.60
2011,07,23,06,37,9.70
2011,07,23,06,38,9.70
2011,07,23,06,39,9.70
2011,07,23,06,40,9.80
2011,07,23,06,41,9.80
2011,07,23,06,42,9.80
2011,07,23,06,43,9.80
2011,07,23,06,44,9.80
2011,07,23,06,45,9.90
2011,07,23,06,46,9.90
2011,07,23,06,47,9.90
2011,07,23,06,48,9.90
2011,07,23,06,49,9.90
2011,07,23,06,50,9.90
2011,07,23,06,51,10.00
2011,07,23,06,52,10.00
2011,07,23,06,53,10.00
2011,07,23,06,54,10.00
2011,07,23,06,55,10.10
2011,07,23,06,56,10.10
2011,07,23,06,57,10.10
2011,07,23,06,58,10.20
2011,07,23,06,59,10.20
2011,07,23,07,00,10.20
2011,07,23,07,01,10.30
2011,07,23,07,02,10.30
2011,07,23,07,03,10.30
2011,07,23,07,04,10.30
2011,07,23,07,05,10.30
2011,07,23,07,06,10.30
2011,07,23,07,07,10.40
2011,07,23,07,08,10.40
2011,07,23,07,09,10.50
2011,07,23,07,10,10.50
2011,07,23,07,11,10.60
2011,07,23,07,12,10.60
2011,07,23,07,13,10.70
2011,07,23,07,14,10.70
2011,07,23,07,15,10.70
2011,07,23,07,16,10.80
2011,07,23,07,17,10.80
2011,07,23,07,18,10.90
2011,07,23,07,19,10.90
2011,07,23,07,20,11.00
2011,07,23,07,21,11.00
2011,07,23,07,22,11.10
2011,07,23,07,23,11.20
2011,07,23,07,24,11.20
2011,07,23,07,25,11.20
2011,07,23,07,26,11.20
2011,07,23,07,27,11.20
2011,07,23,07,28,11.30
2011,07,23,07,29,11.30
2011,07,23,07,30,11.30
2011,07,23,07,31,11.30
2011,07,23,07,32,11.30
2011,07,23,07,33,11.40
2011,07,23,07,34,11.40
2011,07,23,07,35,11.40
2011,07,23,07,36,11.40
2011,07,23,07,37,11.50
2011,07,23,07,38,11.50
2011,07,23,07,39,11.50
2011,07,23,07,40,11.50
2011,07,23,07,41,11.60
2011,07,23,07,42,11.60
2011,07,23,07,43,11.60
2011,07,23,07,44,11.60
2011,07,23,07,45,11.60
2011,07,23,07,46,11.70
2011,07,23,07,47,11.70
2011,07,23,07,48,11.70
2011,07,23,07,49,11.70
2011,07,23,07,50,11.80
2011,07,23,07,51,11.80
2011,07,23,07,52,11.80
2011,07,23,07,53,11.90
2011,07,23,07,54,11.90
2011,07,23,07,55,12.00
2011,07,23,07,56,12.10
2011,07,23,07,57,12.10
2011,07,23,07,58,12.10
2011,07,23,07,59,12.20
2011,07,23,08,00,12.20
2011,07,23,08,01,12.20
2011,07,23,08,02,12.30
2011,07,23,08,03,12.30
2011,07,23,08,04,12.40
2011,07,23,08,05,12.50
2011,07,23,08,06,12.50
2011,07,23,08,07,12.60
2011,07,23,08,08,12.70
2011,07,23,08,09,12.70
2011,07,23,08,10,12.80
2011,07,23,08,11,12.90
2011,07,23,08,12,12.90
2011,07,23,08,13,13.00
2011,07,23,08,14,13.10
2011,07,23,08,15,13.20
2011,07,23,08,16,13.20
2011,07,23,08,17,13.30
2011,07,23,08,18,13.30
2011,07,23,08,19,13.40
2011,07,23,08,20,13.40
2011,07,23,08,21,13.50
2011,07,23,08,22,13.60
2011,07,23,08,23,13.70
2011,07,23,08,24,13.70
2011,07,23,08,25,13.80
2011,07,23,08,26,13.80
2011,07,23,08,27,13.90
2011,07,23,08,28,13.90
2011,07,23,08,29,14.00
2011,07,23,08,30,14.00
2011,07,23,08,31,14.10
2011,07,23,08,32,14.20
2011,07,23,08,33,14.20
2011,07,23,08,34,14.30
2011,07,23,08,35,14.30
2011,07,23,08,36,14.40
2011,07,23,08,37,14.40
2011,07,23,08,38,14.50
2011,07,23,08,39,14.60
2011,07,23,08,40,14.60
2011,07,23,08,41,14.70
2011,07,23,08,42,14.70
2011,07,23,08,43,14.80
2011,07,23,08,44,14.90
2011,07,23,08,45,15.00
2011,07,23,08,46,15.00
2011,07,23,08,47,15.00
2011,07,23,08,48,15.00
2011,07,23,08,49,15.10
2011,07,23,08,50,15.20
2011,07,23,08,51,15.20
2011,07,23,08,52,15.30
2011,07,23,08,53,15.30
2011,07,23,08,54,15.40
2011,07,23,08,55,15.40
2011,07,23,08,56,15.50
2011,07,23,08,57,15.60
2011,07,23,08,58,15.60
2011,07,23,08,59,15.70
2011,07,23,09,00,15.70
2011,07,23,09,01,15.80
2011,07,23,09,02,15.80
2011,07,23,09,03,15.80
2011,07,23,09,04,15.90
2011,07,23,09,05,16.00
2011,07,23,09,06,16.10
2011,07,23,09,07,16.20
2011,07,23,09,08,16.20
2011,07,23,09,09,16.20
2011,07,23,09,10,16.30
2011,07,23,09,11,16.30
2011,07,23,09,12,16.30
2011,07,23,09,13,16.30
2011,07,23,09,14,16.30
2011,07,23,09,15,16.40
2011,07,23,09,16,16.50
2011,07,23,09,17,16.50
2011,07,23,09,18,16.60
2011,07,23,09,19,16.70
2011,07,23,09,20,16.80
2011,07,23,09,21,16.90
2011,07,23,09,22,17.00
2011,07,23,09,23,17.10
2011,07,23,09,24,17.20
2011,07,23,09,25,17.30
2011,07,23,09,26,17.40
2011,07,23,09,27,17.40
2011,07,23,09,28,17.40
2011,07,23,09,29,17.40
2011,07,23,09,30,17.40
2011,07,23,09,31,17.40
2011,07,23,09,32,17.40
2011,07,23,09,33,17.40
2011,07,23,09,34,17.40
2011,07,23,09,35,17.30
2011,07,23,09,36,17.30
2011,07,23,09,37,17.30
2011,07,23,09,38,17.30
2011,07,23,09,39,17.30
2011,07,23,09,40,17.20
2011,07,23,09,41,17.20
2011,07,23,09,42,17.20
2011,07,23,09,43,17.20
2011,07,23,09,44,17.30
2011,07,23,09,45,17.30
2011,07,23,09,46,17.30
2011,07,23,09,47,17.40
2011,07,23,09,48,17.50
2011,07,23,09,49,17.50
2011,07,23,09,50,17.50
2011,07,23,09,51,17.40
2011,07,23,09,52,17.40
2011,07,23,09,53,17.50
2011,07,23,09,54,17.50
2011,07,23,09,55,17.60
2011,07,23,09,56,17.70
2011,07,23,09,57,17.70
2011,07,23,09,58,17.80
2011,07,23,09,59,17.80
2011,07,23,10,00,17.80
2011,07,23,10,01,17.80
2011,07,23,10,02,17.90
2011,07,23,10,03,17.90
2011,07,23,10,04,17.90
2011,07,23,10,05,17.90
2011,07,23,10,06,18.00
2011,07,23,10,07,18.00
2011,07,23,10,08,18.10
2011,07,23,10,09,18.10
2011,07,23,10,10,18.10
2011,07,23,10,11,18.20
2011,07,23,10,12,18.20
2011,07,23,10,13,18.30
2011,07,23,10,14,18.40
2011,07,23,10,15,18.50
2011,07,23,10,16,18.60
2011,07,23,10,17,18.60
2011,07,23,10,18,18.70
2011,07,23,10,19,18.80
2011,07,23,10,20,18.90
2011,07,23,10,21,19.00
2011,07,23,10,22,19.00
2011,07,23,10,23,19.10
2011,07,23,10,24,19.10
2011,07,23,10,25,19.10
2011,07,23,10,26,19.20
2011,07,23,10,27,19.20
2011,07,23,10,28,19.30
2011,07,23,10,29,19.30
2011,07,23,10,30,19.40
2011,07,23,10,31,19.40
2011,07,23,10,32,19.40
2011,07,23,10,33,19.40
2011,07,23,10,34,19.40
2011,07,23,10,35,19.40
2011,07,23,10,36,19.50
2011,07,23,10,37,19.60
2011,07,23,10,38,19.60
2011,07,23,10,39,19.60
2011,07,23,10,40,19.50
2011,07,23,10,41,19.40
2011,07,23,10,42,19.50
2011,07,23,10,43,19.50
2011,07,23,10,44,19.40
2011,07,23,10,45,19.30
2011,07,23,10,46,19.20
2011,07,23,10,47,19.00
2011,07,23,10,48,18.80
2011,07,23,10,49,18.60
2011,07,23,10,50,18.60
2011,07,23,10,51,18.60
2011,07,23,10,52,18.60
2011,07,23,10,53,18.60
2011,07,23,10,54,18.70
2011,07,23,10,55,18.80
2011,07,23,10,56,18.80
2011,07,23,10,57,18.60
2011,07,23,10,58,18.40
2011,07,23,10,59,18.30
2011,07,23,11,00,18.20
2011,07,23,11,01,18.20
2011,07,23,11,02,18.20
2011,07,23,11,03,18.30
2011,07,23,11,04,18.20
2011,07,23,11,05,18.10
2011,07,23,11,06,18.00
2011,07,23,11,07,17.80
2011,07,23,11,08,17.80
2011,07,23,11,09,17.80
2011,07,23,11,10,17.70
2011,07,23,11,11,17.60
2011,07,23,11,12,17.60
2011,07,23,11,13,17.70
2011,07,23,11,14,17.70
2011,07,23,11,15,17.80
2011,07,23,11,16,17.80
2011,07,23,11,17,17.80
2011,07,23,11,18,17.70
2011,07,23,11,19,17.70
2011,07,23,11,20,17.70
2011,07,23,11,21,17.60
2011,07,23,11,22,17.60
2011,07,23,11,23,17.60
2011,07,23,11,24,17.60
2011,07,23,11,25,17.60
2011,07,23,11,26,17.60
2011,07,23,11,27,17.70
2011,07,23,11,28,17.80
2011,07,23,11,29,17.90
2011,07,23,11,30,18.00
2011,07,23,11,31,18.10
2011,07,23,11,32,18.10
2011,07,23,11,33,18.10
2011,07,23,11,34,18.00
2011,07,23,11,35,17.90
2011,07,23,11,36,17.90
2011,07,23,11,37,17.80
2011,07,23,11,38,17.80
2011,07,23,11,39,17.80
2011,07,23,11,40,17.70
2011,07,23,11,41,17.70
2011,07,23,11,42,17.60
2011,07,23,11,43,17.50
2011,07,23,11,44,17.50
2011,07,23,11,45,17.40
2011,07,23,11,46,17.40
2011,07,23,11,47,17.50
2011,07,23,11,48,17.60
2011,07,23,11,49,17.70
2011,07,23,11,50,17.70
2011,07,23,11,51,17.70
2011,07,23,11,52,17.70
2011,07,23,11,53,17.60
2011,07,23,11,54,17.50
2011,07,23,11,55,17.50
2011,07,23,11,56,17.60
2011,07,23,11,57,17.70
2011,07,23,11,58,17.70
2011,07,23,11,59,17.90
2011,07,23,12,00,18.00
2011,07,23,12,01,18.20
2011,07,23,12,02,18.40
2011,07,23,12,03,18.60
2011,07,23,12,04,18.80
2011,07,23,12,05,18.90
2011,07,23,12,06,18.90
2011,07,23,12,07,18.90
2011,07,23,12,08,19.00
2011,07,23,12,09,19.00
2011,07,23,12,10,18.90
2011,07,23,12,11,18.90
2011,07,23,12,12,18.80
2011,07,23,12,13,18.90
2011,07,23,12,14,18.90
2011,07,23,12,15,19.00
2011,07,23,12,16,19.00
2011,07,23,12,17,19.10
2011,07,23,12,18,19.10
2011,07,23,12,19,19.20
2011,07,23,12,20,19.20
2011,07,23,12,21,19.30
2011,07,23,12,22,19.40
2011,07,23,12,23,19.50
2011,07,23,12,24,19.60
2011,07,23,12,25,19.70
2011,07,23,12,26,19.90
2011,07,23,12,27,19.90
2011,07,23,12,28,20.00
2011,07,23,12,29,20.00
2011,07,23,12,30,20.10
2011,07,23,12,31,20.20
2011,07,23,12,32,20.20
2011,07,23,12,33,20.30
2011,07,23,12,34,20.30
2011,07,23,12,35,20.30
2011,07,23,12,36,20.30
2011,07,23,12,37,20.40
2011,07,23,12,38,20.40
2011,07,23,12,39,20.40
2011,07,23,12,40,20.50
2011,07,23,12,41,20.60
2011,07,23,12,42,20.50
2011,07,23,12,43,20.50
2011,07,23,12,44,20.40
2011,07,23,12,45,20.40
2011,07,23,12,46,20.40
2011,07,23,12,47,20.40
2011,07,23,12,48,20.50
2011,07,23,12,49,20.60
2011,07,23,12,50,20.70
2011,07,23,12,51,20.70
2011,07,23,12,52,20.80
2011,07,23,12,53,20.70
2011,07,23,12,54,20.60
2011,07,23,12,55,20.40
2011,07,23,12,56,20.20
2011,07,23,12,57,20.20
2011,07,23,12,58,20.20
2011,07,23,12,59,20.30
2011,07,23,13,00,20.30
2011,07,23,13,01,20.20
2011,07,23,13,02,20.00
2011,07,23,13,03,19.90
2011,07,23,13,04,19.80
2011,07,23,13,05,19.80
2011,07,23,13,06,19.70
2011,07,23,13,07,19.70
2011,07,23,13,08,19.60
2011,07,23,13,09,19.60
2011,07,23,13,10,19.60
2011,07,23,13,11,19.60
2011,07,23,13,12,19.70
2011,07,23,13,13,19.70
2011,07,23,13,14,19.70
2011,07,23,13,15,19.80
2011,07,23,13,16,19.90
2011,07,23,13,17,19.90
2011,07,23,13,18,19.90
2011,07,23,13,19,20.00
2011,07,23,13,20,20.10
2011,07,23,13,21,20.10
2011,07,23,13,22,20.20
2011,07,23,13,23,20.30
2011,07,23,13,24,20.30
2011,07,23,13,25,20.20
2011,07,23,13,26,20.10
2011,07,23,13,27,20.00
2011,07,23,13,28,20.00
2011,07,23,13,29,20.10
2011,07,23,13,30,20.20
2011,07,23,13,31,20.20
2011,07,23,13,32,20.20
2011,07,23,13,33,20.20
2011,07,23,13,34,20.30
2011,07,23,13,35,20.30
2011,07,23,13,36,20.40
2011,07,23,13,37,20.30
2011,07,23,13,38,20.40
2011,07,23,13,39,20.40
2011,07,23,13,40,20.40
2011,07,23,13,41,20.40
2011,07,23,13,42,20.40
2011,07,23,13,43,20.40
2011,07,23,13,44,20.40
2011,07,23,13,45,20.30
2011,07,23,13,46,20.30
2011,07,23,13,47,20.20
2011,07,23,13,48,20.00
2011,07,23,13,49,19.90
2011,07,23,13,50,19.90
2011,07,23,13,51,19.90
2011,07,23,13,52,19.90
2011,07,23,13,53,19.90
2011,07,23,13,54,20.00
2011,07,23,13,55,20.10
2011,07,23,13,56,20.10
2011,07,23,13,57,20.30
2011,07,23,13,58,20.40
2011,07,23,13,59,20.50
2011,07,23,14,00,20.50
2011,07,23,14,01,20.50
2011,07,23,14,02,20.60
2011,07,23,14,03,20.60
2011,07,23,14,04,20.60
2011,07,23,14,05,20.60
2011,07,23,14,06,20.50
2011,07,23,14,07,20.40
2011,07,23,14,08,20.40
2011,07,23,14,09,20.40
2011,07,23,14,10,20.30
2011,07,23,14,11,20.30
2011,07,23,14,12,20.40
2011,07,23,14,13,20.50
2011,07,23,14,14,20.60
2011,07,23,14,15,20.70
2011,07,23,14,16,20.80
2011,07,23,14,17,20.90
2011,07,23,14,18,21.00
2011,07,23,14,19,21.10
2011,07,23,14,20,21.00
2011,07,23,14,21,21.00
2011,07,23,14,22,21.00
2011,07,23,14,23,20.90
2011,07,23,14,24,20.80
2011,07,23,14,25,20.50
2011,07,23,14,26,20.40
2011,07,23,14,27,20.30
2011,07,23,14,28,20.20
2011,07,23,14,29,20.10
2011,07,23,14,30,20.00
2011,07,23,14,31,20.00
2011,07,23,14,32,20.00
2011,07,23,14,33,20.00
2011,07,23,14,34,20.00
2011,07,23,14,35,20.10
2011,07,23,14,36,20.00
2011,07,23,14,37,20.00
2011,07,23,14,38,20.00
2011,07,23,14,39,20.20
2011,07,23,14,40,20.30
2011,07,23,14,41,20.40
2011,07,23,14,42,20.60
2011,07,23,14,43,20.60
2011,07,23,14,44,20.60
2011,07,23,14,45,20.60
2011,07,23,14,46,20.70
2011,07,23,14,47,20.80
2011,07,23,14,48,20.90
2011,07,23,14,49,20.90
2011,07,23,14,50,20.90
2011,07,23,14,51,20.90
2011,07,23,14,52,20.80
2011,07,23,14,53,20.80
2011,07,23,14,54,20.70
2011,07,23,14,55,20.60
2011,07,23,14,56,20.60
2011,07,23,14,57,20.60
2011,07,23,14,58,20.60
2011,07,23,14,59,20.70
2011,07,23,15,00,20.70
2011,07,23,15,01,20.80
2011,07,23,15,02,20.80
2011,07,23,15,03,20.70
2011,07,23,15,04,20.60
2011,07,23,15,05,20.60
2011,07,23,15,06,20.50
2011,07,23,15,07,20.50
2011,07,23,15,08,20.50
2011,07,23,15,09,20.50
2011,07,23,15,10,20.40
2011,07,23,15,11,20.40
2011,07,23,15,12,20.50
2011,07,23,15,13,20.50
2011,07,23,15,14,20.50
2011,07,23,15,15,20.40
2011,07,23,15,16,20.40
2011,07,23,15,17,20.40
2011,07,23,15,18,20.40
2011,07,23,15,19,20.40
2011,07,23,15,20,20.40
2011,07,23,15,21,20.50
2011,07,23,15,22,20.50
2011,07,23,15,23,20.60
2011,07,23,15,24,20.60
2011,07,23,15,25,20.60
2011,07,23,15,26,20.60
2011,07,23,15,27,20.60
2011,07,23,15,28,20.60
2011,07,23,15,29,20.60
2011,07,23,15,30,20.50
2011,07,23,15,31,20.50
2011,07,23,15,32,20.50
2011,07,23,15,33,20.50
2011,07,23,15,34,20.50
2011,07,23,15,35,20.50
2011,07,23,15,36,20.50
2011,07,23,15,37,20.60
2011,07,23,15,38,20.70
2011,07,23,15,39,20.80
2011,07,23,15,40,20.70
2011,07,23,15,41,20.60
2011,07,23,15,42,20.60
2011,07,23,15,43,20.70
2011,07,23,15,44,20.70
2011,07,23,15,45,20.70
2011,07,23,15,46,20.70
2011,07,23,15,47,20.70
2011,07,23,15,48,20.80
2011,07,23,15,49,20.80
2011,07,23,15,50,20.90
2011,07,23,15,51,21.00
2011,07,23,15,52,21.10
2011,07,23,15,53,21.20
2011,07,23,15,54,21.30
2011,07,23,15,55,21.40
2011,07,23,15,56,21.40
2011,07,23,15,57,21.30
2011,07,23,15,58,21.30
2011,07,23,15,59,21.20
2011,07,23,16,00,21.10
2011,07,23,16,01,21.10
2011,07,23,16,02,21.10
2011,07,23,16,03,21.10
2011,07,23,16,04,21.10
2011,07,23,16,05,21.10
2011,07,23,16,06,21.00
2011,07,23,16,07,21.00
2011,07,23,16,08,20.90
2011,07,23,16,09,21.00
2011,07,23,16,10,21.00
2011,07,23,16,11,20.90
2011,07,23,16,12,21.00
2011,07,23,16,13,21.10
2011,07,23,16,14,21.20
2011,07,23,16,15,21.30
2011,07,23,16,16,21.30
2011,07,23,16,17,21.30
2011,07,23,16,18,21.30
2011,07,23,16,19,21.30
2011,07,23,16,20,21.40
2011,07,23,16,21,21.40
2011,07,23,16,22,21.50
2011,07,23,16,23,21.50
2011,07,23,16,24,21.60
2011,07,23,16,25,21.60
2011,07,23,16,26,21.60
2011,07,23,16,27,21.60
2011,07,23,16,28,21.70
2011,07,23,16,29,21.70
2011,07,23,16,30,21.70
2011,07,23,16,31,21.70
2011,07,23,16,32,21.60
2011,07,23,16,33,21.60
2011,07,23,16,34,21.50
2011,07,23,16,35,21.40
2011,07,23,16,36,21.30
2011,07,23,16,37,21.40
2011,07,23,16,38,21.20
2011,07,23,16,39,21.10
2011,07,23,16,40,20.90
2011,07,23,16,41,20.90
2011,07,23,16,42,20.80
2011,07,23,16,43,20.80
2011,07,23,16,44,20.70
2011,07,23,16,45,20.60
2011,07,23,16,46,20.50
2011,07,23,16,47,20.40
2011,07,23,16,48,20.40
2011,07,23,16,49,20.50
2011,07,23,16,50,20.50
2011,07,23,16,51,20.50
2011,07,23,16,52,20.60
2011,07,23,16,53,20.60
2011,07,23,16,54,20.60
2011,07,23,16,55,20.60
2011,07,23,16,56,20.60
2011,07,23,16,57,20.60
2011,07,23,16,58,20.60
2011,07,23,16,59,20.50
2011,07,23,17,00,20.60
2011,07,23,17,01,20.60
2011,07,23,17,02,20.70
2011,07,23,17,03,20.80
2011,07,23,17,04,20.90
2011,07,23,17,05,20.90
2011,07,23,17,06,21.00
2011,07,23,17,07,21.10
2011,07,23,17,08,21.20
2011,07,23,17,09,21.20
2011,07,23,17,10,21.30
2011,07,23,17,11,21.20
2011,07,23,17,12,21.20
2011,07,23,17,13,21.20
2011,07,23,17,14,21.20
2011,07,23,17,15,21.30
2011,07,23,17,16,21.40
2011,07,23,17,17,21.40
2011,07,23,17,18,21.40
2011,07,23,17,19,21.50
2011,07,23,17,20,21.50
2011,07,23,17,21,21.50
2011,07,23,17,22,21.60
2011,07,23,17,23,21.60
2011,07,23,17,24,21.70